Weather History for Twin Falls, ID

Change the Weather History Date:

Wednesday, July 24, 2013

  Actual Average Record
Temperature  
Mean Temperature 82 °F -  
Max Temperature 95 °F 91 °F 98 °F (2011)
Min Temperature 69 °F 59 °F 48 °F (1981)
Degree Days  
Heating Degree Days 0 0  
Month to date heating degree days 0 3  
Since 1 June heating degree days 55 90  
Since 1 July heating degree days 0 3  
Cooling Degree Days 17 10  
Month to date cooling degree days 354 206  
Year to date cooling degree days 552 315  
Since 1 June cooling degree days 527 293  
Growing Degree Days 32 (Base 50)    
Moisture  
Dew Point 33 °F    
Average Humidity 20    
Maximum Humidity 27    
Minimum Humidity 12    
Precipitation  
Precipitation 0.00 in 0.01 in 0.05 in (2007)
Month to date precipitation 0.16 0.23  
Year to date precipitation 3.19 6.49  
Sea Level Pressure  
Sea Level Pressure 29.87 in    
Wind  
Wind Speed 10 mph (SW)    
Max Wind Speed 20 mph    
Max Gust Speed 91 mph    
Visibility 10 miles    
Events      
T = Trace of Precipitation, MM = Missing Value Source: NWS Daily Summary

Daily Weather History Graph

Daily Weather History Graph

Search for Another Location

Airport:

Trip Planner

Search our weather history database for the weather conditions in past years. The results will help you decide how hot, cold, wet, or windy it might be!

Date:

Astronomy

Jul. 24, 2013 Rise Set
Actual Time 6:22 AM MDT 9:05 PM MDT
Civil Twilight 5:49 AM MDT 9:38 PM MDT
Nautical Twilight 5:08 AM MDT 10:19 PM MDT
Astronomical Twilight 4:21 AM MDT 11:06 PM MDT
Moon 10:09 PM MDT (7/24) 8:51 AM MDT (7/24)
Length of Visible Light 15h 48m
Length of Day
14h 43m
Waning Gibbous, 94% of the Moon is Illuminated
Jul 24
Waning Gibbous
Jul 29
Last Quarter
Aug 6
New
Aug 14
First Quarter
Aug 20
Full

Hourly Weather History & Observations

Time (MDT) Temp. Dew Point Humidity Pressure Visibility Wind Dir Wind Speed Gust Speed Precip Events Conditions
12:53 AM 70.0 °F 26.1 °F 19% 29.87 in 10.0 mi South 12.7 mph - N/A   Clear
1:53 AM 72.0 °F 21.9 °F 15% 29.86 in 10.0 mi South 11.5 mph - N/A   Clear
2:53 AM 73.0 °F 23.0 °F 15% 29.85 in 10.0 mi South 12.7 mph - N/A   Clear
3:53 AM 72.0 °F 23.0 °F 16% 29.84 in 10.0 mi South 11.5 mph - N/A   Clear
4:53 AM 75.0 °F 24.1 °F 15% 29.84 in 10.0 mi SSW 6.9 mph - N/A   Clear
5:53 AM 77.0 °F 21.9 °F 13% 29.84 in 10.0 mi SW 8.1 mph - N/A   Clear
6:53 AM 71.1 °F 28.9 °F 21% 29.86 in 10.0 mi South 10.4 mph - N/A   Clear
7:53 AM 75.9 °F 35.1 °F 23% 29.86 in 10.0 mi South 8.1 mph - N/A   Clear
8:53 AM 80.1 °F 36.0 °F 20% 29.89 in 10.0 mi South 8.1 mph - N/A   Clear
9:53 AM 86.0 °F 39.0 °F 19% 29.90 in 10.0 mi SW 13.8 mph - N/A   Clear
10:53 AM 89.1 °F 42.1 °F 19% 29.89 in 10.0 mi WNW 11.5 mph - N/A   Clear
12:53 PM 91.0 °F 32.0 °F 12% 29.89 in 10.0 mi WNW 15.0 mph - N/A   Clear
1:53 PM 89.1 °F 30.0 °F 12% 29.89 in 10.0 mi West 16.1 mph 20.7 mph N/A   Clear
2:53 PM 90.0 °F 33.1 °F 13% 29.88 in 10.0 mi WNW 11.5 mph - N/A   Clear
3:53 PM 95.0 °F 35.1 °F 12% 29.86 in 10.0 mi WNW 12.7 mph - N/A   Clear
4:53 PM 90.0 °F 35.1 °F 14% 29.86 in 10.0 mi WNW 10.4 mph - N/A   Clear
5:53 PM 91.0 °F 39.9 °F 17% 29.84 in 10.0 mi West 12.7 mph - N/A   Clear
6:53 PM 89.1 °F 42.1 °F 19% 29.85 in 10.0 mi West 6.9 mph - N/A   Clear
7:53 PM 84.9 °F 43.0 °F 23% 29.84 in 10.0 mi WSW 4.6 mph - N/A   Clear
8:53 PM 82.9 °F 41.0 °F 23% 29.84 in 10.0 mi West 6.9 mph - N/A   Clear
9:53 PM 79.0 °F 37.9 °F 23% 29.84 in 10.0 mi WSW 6.9 mph - N/A   Clear
10:53 PM 77.0 °F 37.0 °F 24% 29.85 in 10.0 mi SSW 10.4 mph - N/A   Clear
11:53 PM 73.9 °F 37.9 °F 27% 30.05 in 10.0 mi South 9.2 mph - N/A   Clear